Date String (YYYY-MM-DD hh:mm:ss) UTC,Instrument flags,absolute air pressure of the measurement (hPa),sample flow rate (lpm),inlet stack bypass flow (lpm),air temperature of the measurement (°C),ambient temperature measured by the external sensor (°C),aerosol sample conditioner tube jacket temperature (°C),OPC LED temperature (°C),internal box temperature (°C),relative humidity of the measurement (%),span deviation,mass concentration of particles derived from Lorenz-Mie calculation of OPC scattering (μg/m³),mass concentration of particles derived from Lorenz-Mie calculation of OPC scattering (μg/m³),mass concentration of particles derived from Lorenz-Mie calculation of OPC scattering (μg/m³)
DateTimeUTC,F1_M11,P_M11,Q1_M11,Q2_M11,T1_M11,T2_M11,T3_M11,T4_M11,T5_M11,U1_M11,ZSPAN_M11,X2_M11,X0_M11,X1_M11
2023-09-24 15:00:00,SystemResetWarning,0833.2,5.01,000.00,028.3,026.9,000.0,036.6,029.9,13.1,0002.8,0003.77,0007.44,0003.28
2023-09-24 15:01:00,SystemResetWarning,0833.4,5.00,000.00,028.3,026.9,000.0,036.6,029.9,13.0,0002.9,0003.75,0007.38,0003.28
2023-09-24 15:02:00,SystemResetWarning,0833.2,4.99,000.00,028.3,026.9,000.0,036.6,029.9,12.9,0002.3,0003.75,0007.54,0003.27
2023-09-24 15:03:00,SystemResetWarning,0833.1,4.99,000.00,028.3,027.0,000.0,036.6,029.9,13.0,0000.5,0003.73,0007.64,0003.28
2023-09-24 15:04:00,SystemResetWarning,0833.1,5.00,000.00,028.3,027.0,000.0,036.6,029.9,13.0,0002.0,0003.70,0007.48,0003.28
2023-09-24 15:05:00,SystemResetWarning,0833.1,5.01,000.00,028.4,027.0,000.0,036.6,030.0,12.9,0001.9,0003.67,0007.81,0003.26
2023-09-24 15:06:00,SystemResetWarning,0833.1,5.02,000.00,028.4,027.1,000.0,036.6,030.0,12.7,0001.2,0003.67,0008.28,0003.26
2023-09-24 15:07:00,SystemResetWarning,0833.1,4.99,000.00,028.4,027.1,000.0,036.6,030.0,12.9,0000.9,0003.66,0008.31,0003.26
2023-09-24 15:08:00,SystemResetWarning,0833.2,4.99,000.00,028.4,027.1,000.0,036.6,030.0,12.5,0001.2,0003.71,0008.42,0003.27
2023-09-24 15:09:00,SystemResetWarning,0833.1,5.00,000.00,028.4,027.1,000.0,036.6,030.1,12.4,0000.6,0003.72,0009.07,0003.26
2023-09-24 15:10:00,SystemResetWarning,0833.1,5.00,000.00,028.4,027.1,000.0,036.7,030.1,12.6,0000.0,0003.76,0009.74,0003.26
2023-09-24 15:11:00,SystemResetWarning,0833.1,5.00,000.00,028.4,027.2,000.0,036.7,030.1,12.5,-000.0,0003.78,0009.42,0003.26
2023-09-24 15:12:00,SystemResetWarning,0833.2,5.01,000.00,028.5,027.2,000.0,036.7,030.1,12.4,0000.5,0003.79,0009.46,0003.26
2023-09-24 15:13:00,SystemResetWarning,0833.2,5.00,000.00,028.5,027.2,000.0,036.7,030.1,12.3,0001.5,0003.77,0009.23,0003.25
2023-09-24 15:14:00,SystemResetWarning,0833.2,5.00,000.00,028.5,027.2,000.0,036.7,030.1,12.3,0001.9,0003.74,0009.38,0003.24
2023-09-24 15:15:00,SystemResetWarning,0833.2,4.99,000.00,028.5,027.2,000.0,036.7,030.2,12.1,0001.7,0003.75,0009.43,0003.22
2023-09-24 15:16:00,SystemResetWarning,0833.2,4.99,000.00,028.5,027.3,000.0,036.7,030.2,12.0,0000.0,0003.75,0009.12,0003.22
2023-09-24 15:17:00,SystemResetWarning,0833.2,4.99,000.00,028.5,027.3,000.0,036.8,030.2,11.9,0000.0,0003.74,0008.76,0003.22
2023-09-24 15:18:00,SystemResetWarning,0833.2,5.00,000.00,028.6,027.3,000.0,036.8,030.2,11.8,0000.0,0003.73,0009.27,0003.22
2023-09-24 15:19:00,SystemResetWarning,0833.2,5.00,000.00,028.6,027.3,000.0,036.8,030.2,11.6,0000.0,0003.73,0009.56,0003.23
2023-09-24 15:20:00,SystemResetWarning,0833.2,5.00,000.00,028.6,027.4,000.0,036.8,030.3,11.6,0000.0,0003.73,0009.04,0003.23
2023-09-24 15:21:00,SystemResetWarning,0833.2,5.00,000.00,028.6,027.4,000.0,036.8,030.3,11.5,0000.0,0003.69,0008.32,0003.23
2023-09-24 15:22:00,SystemResetWarning,0833.2,5.00,000.00,028.6,027.4,000.0,036.8,030.3,12.3,0000.0,0003.68,0008.77,0003.24
2023-09-24 15:23:00,SystemResetWarning,0833.2,5.00,000.00,028.7,027.4,000.0,036.8,030.3,12.5,0000.0,0003.68,0009.11,0003.24
2023-09-24 15:24:00,SystemResetWarning,0833.3,4.99,000.00,028.7,027.4,000.0,036.9,030.3,11.9,0000.0,0003.67,0009.25,0003.24
2023-09-24 15:25:00,SystemResetWarning,0833.3,5.00,000.00,028.7,027.5,000.0,036.9,030.4,11.9,0000.0,0003.73,0009.26,0003.25
2023-09-24 15:26:00,SystemResetWarning,0833.3,5.00,000.00,028.7,027.5,000.0,036.9,030.4,12.0,0000.0,0003.77,0009.40,0003.27
2023-09-24 15:27:00,SystemResetWarning,0833.3,5.00,000.00,028.7,027.5,000.0,036.9,030.4,12.0,0000.0,0003.78,0009.38,0003.28
2023-09-24 15:28:00,SystemResetWarning,0833.3,5.00,000.00,028.7,027.5,000.0,036.9,030.4,12.0,0000.0,0003.80,0009.76,0003.27
2023-09-24 15:29:00,SystemResetWarning,0833.3,5.01,000.00,028.7,027.5,000.0,036.9,030.4,12.0,0000.0,0003.81,0009.51,0003.26
2023-09-24 15:30:00,SystemResetWarning,0833.3,5.00,000.00,028.8,027.5,000.0,036.9,030.4,11.9,0000.0,0003.81,0009.58,0003.25
2023-09-24 15:31:00,SystemResetWarning,0833.3,5.00,000.00,028.8,027.5,000.0,037.0,030.4,11.8,0000.0,0003.82,0010.10,0003.25
2023-09-24 15:32:00,SystemResetWarning,0833.3,5.00,000.00,028.8,027.6,000.0,037.0,030.5,12.0,0000.0,0003.82,0010.01,0003.25
2023-09-24 15:33:00,SystemResetWarning,0833.3,5.01,000.00,028.8,027.6,000.0,037.0,030.5,12.1,0000.0,0003.82,0009.49,0003.24
2023-09-24 15:34:00,SystemResetWarning,0833.4,5.01,000.00,028.8,027.6,000.0,037.0,030.5,11.7,0000.0,0003.83,0009.50,0003.24
2023-09-24 15:35:00,SystemResetWarning,0833.4,5.00,000.00,028.8,027.6,000.0,037.0,030.5,11.6,0000.0,0003.85,0010.32,0003.24
2023-09-24 15:36:00,SystemResetWarning,0833.4,5.00,000.00,028.9,027.6,000.0,037.0,030.5,11.6,0000.0,0003.79,0010.90,0003.23
2023-09-24 15:37:00,SystemResetWarning,0833.3,5.00,000.00,028.9,027.6,000.0,037.0,030.6,11.8,0000.0,0003.77,0010.99,0003.21
2023-09-24 15:38:00,SystemResetWarning,0833.3,5.00,000.00,028.9,027.7,000.0,037.1,030.6,12.0,0000.0,0003.77,0010.92,0003.20
2023-09-24 15:39:00,SystemResetWarning,0833.3,5.00,000.00,028.9,027.7,000.0,037.1,030.6,11.8,0000.0,0003.74,0010.82,0003.20
2023-09-24 15:40:00,SystemResetWarning,0833.2,5.00,000.00,028.9,027.7,000.0,037.1,030.6,12.0,0000.0,0003.75,0010.95,0003.21
2023-09-24 15:41:00,SystemResetWarning,0833.3,5.00,000.00,028.9,027.7,000.0,037.1,030.6,12.4,0000.0,0003.73,0010.86,0003.20
2023-09-24 15:42:00,SystemResetWarning,0833.3,5.00,000.00,029.0,027.7,000.0,037.1,030.6,12.1,0000.0,0003.72,0010.16,0003.19
2023-09-24 15:43:00,SystemResetWarning,0833.4,5.00,000.00,029.0,027.8,000.0,037.2,030.6,12.3,0000.0,0003.69,0010.20,0003.17
2023-09-24 15:44:00,SystemResetWarning,0833.3,5.00,000.00,029.0,027.8,000.0,037.2,030.7,12.5,0000.0,0003.68,0010.53,0003.17
2023-09-24 15:45:00,SystemResetWarning,0833.4,5.00,000.00,029.0,027.8,000.0,037.2,030.7,12.5,0000.0,0003.65,0010.33,0003.17
2023-09-24 15:46:00,SystemResetWarning,0833.3,5.00,000.00,029.0,027.8,000.0,037.2,030.7,12.5,0000.0,0003.64,0009.42,0003.16
2023-09-24 15:47:00,SystemResetWarning,0833.4,5.00,000.00,029.0,027.9,000.0,037.2,030.7,12.5,0000.0,0003.65,0008.68,0003.17
2023-09-24 15:48:00,SystemResetWarning,0833.3,5.00,000.00,029.1,027.9,000.0,037.3,030.7,12.5,0000.0,0003.65,0008.57,0003.16
2023-09-24 15:49:00,SystemResetWarning,0833.3,5.01,000.00,029.1,027.9,000.0,037.3,030.7,12.4,0000.0,0003.66,0008.65,0003.16
2023-09-24 15:50:00,SystemResetWarning,0833.3,5.01,000.00,029.1,027.9,000.0,037.3,030.8,12.3,0000.0,0003.68,0008.38,0003.16
2023-09-24 15:51:00,SystemResetWarning,0833.3,4.99,000.00,029.1,027.9,000.0,037.3,030.8,12.6,0000.0,0003.66,0007.86,0003.14
2023-09-24 15:52:00,SystemResetWarning,0833.3,4.99,000.00,029.1,027.9,000.0,037.3,030.8,12.4,0000.0,0003.65,0007.78,0003.13
2023-09-24 15:53:00,SystemResetWarning,0833.4,5.01,000.00,029.2,028.0,000.0,037.3,030.8,12.5,0000.0,0003.62,0008.04,0003.12
2023-09-24 15:54:00,SystemResetWarning,0833.4,5.01,000.00,029.2,028.0,000.0,037.3,030.8,12.6,0000.0,0003.63,0008.14,0003.12
2023-09-24 15:55:00,SystemResetWarning,0833.3,5.01,000.00,029.2,028.0,000.0,037.4,030.9,12.4,0000.0,0003.66,0008.14,0003.10
2023-09-24 15:56:00,SystemResetWarning,0833.4,4.99,000.00,029.2,027.5,000.0,037.3,030.9,12.4,0000.0,0003.70,0008.40,0003.10
2023-09-24 15:57:00,SystemResetWarning,0833.3,5.00,000.00,029.1,025.7,000.0,037.3,030.5,12.5,0000.0,0003.69,0008.99,0003.08
2023-09-24 15:58:00,SystemResetWarning,0833.2,5.00,000.00,029.0,024.5,000.0,037.2,030.2,13.0,0000.0,0003.70,0009.33,0003.05
2023-09-24 15:59:00,SystemResetWarning,0833.2,5.01,000.00,028.9,024.6,000.0,037.2,030.1,13.1,0000.0,0003.71,0009.08,0003.05
